Location: Recife
(8.0585°S, 34.8848°W)
Time: 21:56:10
(UTC-03:00)

Courier 1B - Pass Details

Date: 22 April 2026
Orbit: 962 x 1209 km, 28.3° (Epoch: 19 May)

Event Time Altitude Azimuth Distance (km) Brightness Sun altitude
Exits shadow 04:48:17 10° 254° (WSW) 2,955 9.3 -8.9°
Maximum altitude 04:54:17 27° 198° (SSW) 2,048 8.9 -7.5°
Drops below altitude 10° 05:00:37 10° 143° (SE) 3,109 10.5 -5.9°
Sets 05:04:02 0° 131° (SE) 4,096 11.3 -5.1°
